Time,TemperatureF,DewpointF,PressureIn,WindDirection,WindDirectionDegrees,WindSpeedMPH,WindSpeedGustMPH,Humidity,HourlyPrecipIn,Conditions,Clouds,dailyrainin,SoftwareType,DateUTC
2013-04-18 00:01:00,52.0,47.0,30.25,South,180,0.0,1.0,83,0.00,,,0.00,Rainwise IP-100,2013-04-18 04:01:00,
2013-04-18 00:06:00,52.0,47.5,30.25,South,180,1.0,1.0,85,0.00,,,0.00,Rainwise IP-100,2013-04-18 04:06:00,
2013-04-18 00:11:00,52.0,47.5,30.26,SSE,157,0.0,2.0,85,0.00,,,0.00,Rainwise IP-100,2013-04-18 04:11:00,
2013-04-18 00:16:00,52.0,47.5,30.26,SSE,157,0.0,3.0,85,0.00,,,0.00,Rainwise IP-100,2013-04-18 04:16:00,
2013-04-18 00:21:00,52.0,47.5,30.26,SSE,157,0.0,2.0,85,0.00,,,0.00,Rainwise IP-100,2013-04-18 04:21:00,
2013-04-18 00:26:00,51.0,47.5,30.26,SSE,157,1.0,2.0,86,0.00,,,0.00,Rainwise IP-100,2013-04-18 04:26:00,
2013-04-18 00:31:00,51.0,47.5,30.26,SSE,157,0.0,1.0,87,0.00,,,0.00,Rainwise IP-100,2013-04-18 04:31:00,
2013-04-18 00:36:00,51.0,47.5,30.26,SSE,157,0.0,0.0,88,0.00,,,0.00,Rainwise IP-100,2013-04-18 04:36:00,
2013-04-18 00:41:00,51.0,47.5,30.27,SSE,157,0.0,1.0,88,0.00,,,0.00,Rainwise IP-100,2013-04-18 04:41:00,
2013-04-18 00:46:00,51.0,47.5,30.27,SSE,157,0.0,0.0,88,0.00,,,0.00,Rainwise IP-100,2013-04-18 04:46:00,
2013-04-18 00:51:00,50.0,47.0,30.27,SSE,157,0.0,0.0,90,0.00,,,0.00,Rainwise IP-100,2013-04-18 04:51:00,
2013-04-18 00:56:00,50.0,47.5,30.27,SSE,157,0.0,0.0,93,0.00,,,0.00,Rainwise IP-100,2013-04-18 04:56:00,
2013-04-18 01:01:00,49.0,47.5,30.28,SSE,157,0.0,0.0,94,0.00,,,0.00,Rainwise IP-100,2013-04-18 05:01:00,
2013-04-18 01:06:00,49.0,47.5,30.28,SSE,157,0.0,0.0,95,0.00,,,0.00,Rainwise IP-100,2013-04-18 05:06:00,
2013-04-18 01:11:00,49.0,47.5,30.28,SSE,157,0.0,0.0,94,0.00,,,0.00,Rainwise IP-100,2013-04-18 05:11:00,
2013-04-18 01:16:00,50.0,47.5,30.28,SSE,157,0.0,0.0,93,0.00,,,0.00,Rainwise IP-100,2013-04-18 05:16:00,
2013-04-18 01:21:00,49.0,47.0,30.27,SSE,157,0.0,0.0,92,0.00,,,0.00,Rainwise IP-100,2013-04-18 05:21:00,
2013-04-18 01:26:00,49.0,47.5,30.27,SSE,157,0.0,0.0,93,0.00,,,0.00,Rainwise IP-100,2013-04-18 05:26:00,
2013-04-18 01:31:00,49.0,47.0,30.27,SSE,157,0.0,1.0,92,0.00,,,0.00,Rainwise IP-100,2013-04-18 05:31:00,
2013-04-18 01:36:00,49.0,47.0,30.27,SSE,157,0.0,1.0,92,0.00,,,0.00,Rainwise IP-100,2013-04-18 05:36:00,
2013-04-18 01:41:00,49.0,47.0,30.27,SSE,157,0.0,0.0,92,0.00,,,0.00,Rainwise IP-100,2013-04-18 05:41:00,
2013-04-18 01:46:00,49.0,47.5,30.27,SSE,157,1.0,2.0,94,0.00,,,0.00,Rainwise IP-100,2013-04-18 05:46:00,
2013-04-18 01:51:00,49.0,47.5,30.27,SSE,157,0.0,2.0,94,0.00,,,0.00,Rainwise IP-100,2013-04-18 05:51:00,
2013-04-18 01:56:00,48.0,47.0,30.27,SSE,157,0.0,0.0,95,0.00,,,0.00,Rainwise IP-100,2013-04-18 05:56:00,
2013-04-18 02:01:00,48.0,47.5,30.28,SSE,157,0.0,0.0,96,0.00,,,0.00,Rainwise IP-100,2013-04-18 06:01:00,
2013-04-18 02:06:00,47.0,46.0,30.28,SSE,157,0.0,0.0,96,0.00,,,0.00,Rainwise IP-100,2013-04-18 06:06:00,
2013-04-18 02:11:00,47.0,46.0,30.27,SSE,157,0.0,0.0,97,0.00,,,0.00,Rainwise IP-100,2013-04-18 06:11:00,
2013-04-18 02:16:00,47.0,46.0,30.27,SSE,157,1.0,0.0,97,0.00,,,0.00,Rainwise IP-100,2013-04-18 06:16:00,
2013-04-18 02:21:00,47.0,46.0,30.26,SSE,157,0.0,1.0,97,0.00,,,0.00,Rainwise IP-100,2013-04-18 06:21:00,
2013-04-18 02:26:00,47.0,46.0,30.26,SSE,157,0.0,0.0,98,0.00,,,0.00,Rainwise IP-100,2013-04-18 06:26:00,
2013-04-18 02:31:00,47.0,46.0,30.27,SSE,157,0.0,2.0,98,0.00,,,0.00,Rainwise IP-100,2013-04-18 06:31:00,
2013-04-18 02:36:00,47.0,47.0,30.27,SSE,157,1.0,1.0,99,0.00,,,0.00,Rainwise IP-100,2013-04-18 06:36:00,
2013-04-18 02:41:00,47.0,47.0,30.27,SSE,157,0.0,2.0,99,0.00,,,0.00,Rainwise IP-100,2013-04-18 06:41:00,
2013-04-18 02:46:00,47.0,47.0,30.27,East,90,1.0,1.0,99,0.00,,,0.00,Rainwise IP-100,2013-04-18 06:46:00,
2013-04-18 02:51:00,47.0,46.0,30.27,NNE,22,1.0,4.0,97,0.00,,,0.00,Rainwise IP-100,2013-04-18 06:51:00,
2013-04-18 02:56:00,48.0,47.5,30.27,NNE,22,0.0,3.0,97,0.00,,,0.00,Rainwise IP-100,2013-04-18 06:56:00,
2013-04-18 03:01:00,48.0,47.5,30.28,NNE,22,0.0,0.0,96,0.00,,,0.00,Rainwise IP-100,2013-04-18 07:01:00,
2013-04-18 03:06:00,48.0,47.5,30.28,NNE,22,1.0,0.0,96,0.00,,,0.00,Rainwise IP-100,2013-04-18 07:06:00,
2013-04-18 03:11:00,48.0,47.5,30.28,NNE,22,1.0,3.0,98,0.00,,,0.00,Rainwise IP-100,2013-04-18 07:11:00,
2013-04-18 03:16:00,48.0,48.0,30.28,East,90,1.0,2.0,99,0.00,,,0.00,Rainwise IP-100,2013-04-18 07:16:00,
2013-04-18 03:21:00,48.0,47.5,30.27,East,90,0.0,4.0,97,0.00,,,0.00,Rainwise IP-100,2013-04-18 07:21:00,
2013-04-18 03:26:00,47.0,46.0,30.27,East,90,0.0,2.0,98,0.00,,,0.00,Rainwise IP-100,2013-04-18 07:26:00,
2013-04-18 03:31:00,47.0,46.0,30.27,East,90,0.0,1.0,97,0.00,,,0.00,Rainwise IP-100,2013-04-18 07:31:00,
2013-04-18 03:36:00,47.0,46.0,30.27,East,90,0.0,1.0,98,0.00,,,0.00,Rainwise IP-100,2013-04-18 07:36:00,
2013-04-18 03:41:00,47.0,46.0,30.27,East,90,0.0,1.0,98,0.00,,,0.00,Rainwise IP-100,2013-04-18 07:41:00,
2013-04-18 03:46:00,47.0,46.0,30.27,East,90,0.0,1.0,97,0.00,,,0.00,Rainwise IP-100,2013-04-18 07:46:00,
2013-04-18 03:51:00,48.0,48.0,30.27,East,90,0.0,0.0,99,0.00,,,0.00,Rainwise IP-100,2013-04-18 07:51:00,
2013-04-18 03:56:00,47.0,47.0,30.27,East,90,0.0,0.0,99,0.00,,,0.00,Rainwise IP-100,2013-04-18 07:56:00,
2013-04-18 04:01:00,47.0,46.0,30.29,East,90,1.0,2.0,98,0.00,,,0.00,Rainwise IP-100,2013-04-18 08:01:00,
2013-04-18 04:06:00,47.0,46.0,30.29,East,90,1.0,3.0,98,0.00,,,0.00,Rainwise IP-100,2013-04-18 08:06:00,
2013-04-18 04:11:00,48.0,47.5,30.28,East,90,1.0,3.0,97,0.00,,,0.00,Rainwise IP-100,2013-04-18 08:11:00,
2013-04-18 04:16:00,48.0,47.5,30.28,East,90,2.0,4.0,97,0.00,,,0.00,Rainwise IP-100,2013-04-18 08:16:00,
2013-04-18 04:21:00,48.0,47.0,30.28,ESE,112,3.0,4.0,95,0.00,,,0.00,Rainwise IP-100,2013-04-18 08:21:00,
2013-04-18 04:26:00,48.0,47.5,30.28,SE,135,4.0,6.0,96,0.00,,,0.00,Rainwise IP-100,2013-04-18 08:26:00,
2013-04-18 04:31:00,48.0,47.0,30.28,SSE,157,2.0,6.0,95,0.00,,,0.00,Rainwise IP-100,2013-04-18 08:31:00,
2013-04-18 04:36:00,48.0,47.0,30.28,SE,135,0.0,6.0,95,0.00,,,0.00,Rainwise IP-100,2013-04-18 08:36:00,
2013-04-18 04:41:00,48.0,47.5,30.28,East,90,1.0,3.0,97,0.00,,,0.00,Rainwise IP-100,2013-04-18 08:41:00,
2013-04-18 04:46:00,47.0,47.0,30.28,East,90,0.0,2.0,99,0.00,,,0.00,Rainwise IP-100,2013-04-18 08:46:00,
2013-04-18 04:51:00,46.0,46.0,30.28,East,90,0.0,2.0,100,0.00,,,0.00,Rainwise IP-100,2013-04-18 08:51:00,
2013-04-18 04:56:00,46.0,46.0,30.28,East,90,0.0,0.0,99,0.00,,,0.00,Rainwise IP-100,2013-04-18 08:56:00,
2013-04-18 05:01:00,46.0,46.0,30.29,East,90,0.0,0.0,100,0.00,,,0.00,Rainwise IP-100,2013-04-18 09:01:00,
2013-04-18 05:06:00,46.0,46.0,30.29,East,90,0.0,0.0,100,0.00,,,0.00,Rainwise IP-100,2013-04-18 09:06:00,
2013-04-18 05:11:00,46.0,46.0,30.29,East,90,0.0,0.0,100,0.00,,,0.00,Rainwise IP-100,2013-04-18 09:11:00,
2013-04-18 05:16:00,46.0,46.0,30.29,East,90,0.0,1.0,100,0.00,,,0.00,Rainwise IP-100,2013-04-18 09:16:00,
2013-04-18 05:21:00,46.0,46.0,30.29,NE,45,0.0,6.0,100,0.00,,,0.00,Rainwise IP-100,2013-04-18 09:21:00,
2013-04-18 05:26:00,46.0,46.0,30.29,ESE,112,0.0,1.0,100,0.00,,,0.00,Rainwise IP-100,2013-04-18 09:26:00,
2013-04-18 05:31:00,46.0,46.0,30.29,ESE,112,0.0,2.0,100,0.00,,,0.00,Rainwise IP-100,2013-04-18 09:31:00,
2013-04-18 05:36:00,45.0,45.0,30.29,ESE,112,0.0,0.0,100,0.00,,,0.00,Rainwise IP-100,2013-04-18 09:36:00,
2013-04-18 05:41:00,45.0,45.0,30.28,NE,45,1.0,4.0,100,0.00,,,0.00,Rainwise IP-100,2013-04-18 09:41:00,
2013-04-18 05:46:00,45.0,45.0,30.28,NE,45,1.0,2.0,100,0.00,,,0.00,Rainwise IP-100,2013-04-18 09:46:00,
2013-04-18 05:51:00,45.0,45.0,30.28,NE,45,1.0,2.0,100,0.00,,,0.00,Rainwise IP-100,2013-04-18 09:51:00,
2013-04-18 05:56:00,45.0,45.0,30.28,East,90,0.0,4.0,100,0.00,,,0.00,Rainwise IP-100,2013-04-18 09:56:00,
2013-04-18 06:01:00,45.0,45.0,30.28,East,90,3.0,3.0,100,0.00,,,0.00,Rainwise IP-100,2013-04-18 10:01:00,
2013-04-18 06:06:00,45.0,45.0,30.28,NE,45,1.0,4.0,100,0.00,,,0.00,Rainwise IP-100,2013-04-18 10:06:00,
2013-04-18 06:11:00,46.0,46.0,30.28,East,90,2.0,4.0,100,0.00,,,0.00,Rainwise IP-100,2013-04-18 10:11:00,
2013-04-18 06:16:00,46.0,46.0,30.28,East,90,0.0,4.0,100,0.00,,,0.00,Rainwise IP-100,2013-04-18 10:16:00,
2013-04-18 06:21:00,46.0,46.0,30.28,East,90,0.0,0.0,100,0.00,,,0.00,Rainwise IP-100,2013-04-18 10:21:00,
2013-04-18 06:26:00,46.0,46.0,30.28,ENE,67,0.0,6.0,100,0.00,,,0.00,Rainwise IP-100,2013-04-18 10:26:00,
2013-04-18 06:31:00,47.0,47.0,30.29,ENE,67,0.0,2.0,100,0.00,,,0.00,Rainwise IP-100,2013-04-18 10:31:00,
2013-04-18 06:36:00,47.0,47.0,30.29,NE,45,1.0,4.0,100,0.00,,,0.00,Rainwise IP-100,2013-04-18 10:36:00,
2013-04-18 06:41:00,47.0,47.0,30.29,NE,45,2.0,4.0,99,0.00,,,0.00,Rainwise IP-100,2013-04-18 10:41:00,
2013-04-18 06:46:00,47.0,47.0,30.29,NE,45,3.0,4.0,99,0.00,,,0.00,Rainwise IP-100,2013-04-18 10:46:00,
2013-04-18 06:51:00,48.0,48.0,30.28,NE,45,3.0,5.0,99,0.00,,,0.00,Rainwise IP-100,2013-04-18 10:51:00,
2013-04-18 06:56:00,48.0,47.5,30.28,NE,45,4.0,5.0,98,0.00,,,0.00,Rainwise IP-100,2013-04-18 10:56:00,
2013-04-18 07:01:00,48.0,47.5,30.29,ENE,67,1.0,5.0,98,0.00,,,0.00,Rainwise IP-100,2013-04-18 11:01:00,
2013-04-18 07:06:00,48.0,47.5,30.29,NE,45,1.0,5.0,97,0.00,,,0.00,Rainwise IP-100,2013-04-18 11:06:00,
2013-04-18 07:11:00,48.0,47.5,30.28,NNE,22,1.0,4.0,97,0.00,,,0.00,Rainwise IP-100,2013-04-18 11:11:00,
2013-04-18 07:16:00,49.0,48.0,30.28,NNE,22,1.0,5.0,97,0.00,,,0.00,Rainwise IP-100,2013-04-18 11:16:00,
2013-04-18 07:21:00,49.0,48.0,30.28,NE,45,0.0,7.0,97,0.00,,,0.00,Rainwise IP-100,2013-04-18 11:21:00,
2013-04-18 07:26:00,49.0,48.0,30.28,East,90,0.0,3.0,97,0.00,,,0.00,Rainwise IP-100,2013-04-18 11:26:00,
2013-04-18 07:30:00,50.0,49.0,30.27,East,90,4.0,4.0,98,0.00,,,0.00,Rainwise IP-100,2013-04-18 11:30:00,
2013-04-18 07:35:00,50.0,49.0,30.27,NNW,337,2.0,7.0,98,0.00,,,0.00,Rainwise IP-100,2013-04-18 11:35:00,
2013-04-18 07:40:00,50.0,49.0,30.28,East,90,4.0,6.0,98,0.00,,,0.00,Rainwise IP-100,2013-04-18 11:40:00,
2013-04-18 07:45:00,50.0,50.0,30.28,NE,45,6.0,7.0,99,0.00,,,0.00,Rainwise IP-100,2013-04-18 11:45:00,
2013-04-18 07:50:00,51.0,51.0,30.27,ENE,67,6.0,7.0,99,0.00,,,0.00,Rainwise IP-100,2013-04-18 11:50:00,
2013-04-18 07:55:00,51.0,51.0,30.27,NE,45,1.0,8.0,100,0.00,,,0.00,Rainwise IP-100,2013-04-18 11:55:00,
2013-04-18 08:00:00,51.0,51.0,30.27,East,90,3.0,7.0,100,0.00,,,0.00,Rainwise IP-100,2013-04-18 12:00:00,
2013-04-18 08:05:00,52.0,52.0,30.27,ENE,67,2.0,3.0,99,0.00,,,0.00,Rainwise IP-100,2013-04-18 12:05:00,
2013-04-18 08:10:00,52.0,52.0,30.27,South,180,2.0,7.0,99,0.00,,,0.00,Rainwise IP-100,2013-04-18 12:10:00,
2013-04-18 08:15:00,52.0,52.0,30.27,SE,135,0.0,6.0,99,0.00,,,0.00,Rainwise IP-100,2013-04-18 12:15:00,
2013-04-18 08:20:00,53.0,53.0,30.27,East,90,6.0,6.0,99,0.00,,,0.00,Rainwise IP-100,2013-04-18 12:20:00,
2013-04-18 08:25:00,53.0,52.0,30.27,East,90,5.0,6.0,98,0.00,,,0.00,Rainwise IP-100,2013-04-18 12:25:00,
2013-04-18 08:30:00,53.0,52.0,30.28,ENE,67,2.0,6.0,98,0.00,,,0.00,Rainwise IP-100,2013-04-18 12:30:00,
2013-04-18 08:35:00,54.0,54.0,30.28,East,90,7.0,7.0,99,0.00,,,0.00,Rainwise IP-100,2013-04-18 12:35:00,
2013-04-18 08:40:00,53.0,52.0,30.27,East,90,6.0,10.0,98,0.00,,,0.00,Rainwise IP-100,2013-04-18 12:40:00,
2013-04-18 08:45:00,54.0,54.0,30.27,NNE,22,1.0,9.0,99,0.00,,,0.00,Rainwise IP-100,2013-04-18 12:45:00,
2013-04-18 08:50:00,53.0,52.0,30.27,NE,45,0.0,7.0,98,0.00,,,0.00,Rainwise IP-100,2013-04-18 12:50:00,
2013-04-18 08:55:00,53.0,52.0,30.27,East,90,3.0,8.0,98,0.00,,,0.00,Rainwise IP-100,2013-04-18 12:55:00,
2013-04-18 09:00:00,54.0,53.5,30.28,SE,135,0.0,7.0,98,0.00,,,0.00,Rainwise IP-100,2013-04-18 13:00:00,
2013-04-18 09:05:00,54.0,53.5,30.28,SE,135,6.0,6.0,98,0.00,,,0.00,Rainwise IP-100,2013-04-18 13:05:00,
2013-04-18 09:10:00,54.0,53.5,30.28,ESE,112,3.0,6.0,98,0.00,,,0.00,Rainwise IP-100,2013-04-18 13:10:00,
2013-04-18 09:15:00,54.0,53.5,30.28,East,90,2.0,9.0,97,0.00,,,0.00,Rainwise IP-100,2013-04-18 13:15:00,
2013-04-18 09:20:00,54.0,53.0,30.28,SSE,157,0.0,8.0,96,0.00,,,0.00,Rainwise IP-100,2013-04-18 13:20:00,
2013-04-18 09:25:00,54.0,53.0,30.28,ESE,112,1.0,6.0,96,0.00,,,0.00,Rainwise IP-100,2013-04-18 13:25:00,
2013-04-18 09:30:00,54.0,53.0,30.28,ESE,112,2.0,8.0,96,0.00,,,0.00,Rainwise IP-100,2013-04-18 13:30:00,
2013-04-18 09:35:00,54.0,53.0,30.28,ESE,112,4.0,9.0,96,0.00,,,0.00,Rainwise IP-100,2013-04-18 13:35:00,
2013-04-18 09:40:00,54.0,53.0,30.28,South,180,5.0,9.0,96,0.00,,,0.00,Rainwise IP-100,2013-04-18 13:40:00,
2013-04-18 09:45:00,55.0,53.5,30.28,ESE,112,0.0,8.0,94,0.00,,,0.00,Rainwise IP-100,2013-04-18 13:45:00,
2013-04-18 09:50:00,55.0,53.5,30.27,SE,135,1.0,8.0,93,0.00,,,0.00,Rainwise IP-100,2013-04-18 13:50:00,
2013-04-18 09:55:00,55.0,53.0,30.27,South,180,1.0,11.0,91,0.00,,,0.00,Rainwise IP-100,2013-04-18 13:55:00,
2013-04-18 10:00:00,56.0,53.5,30.27,ESE,112,3.0,8.0,91,0.00,,,0.00,Rainwise IP-100,2013-04-18 14:00:00,
2013-04-18 10:05:00,56.0,53.0,30.27,East,90,7.0,9.0,88,0.00,,,0.00,Rainwise IP-100,2013-04-18 14:05:00,
2013-04-18 10:10:00,56.0,53.0,30.26,NE,45,3.0,10.0,89,0.00,,,0.00,Rainwise IP-100,2013-04-18 14:10:00,
2013-04-18 10:15:00,56.0,52.0,30.26,SE,135,7.0,8.0,87,0.00,,,0.00,Rainwise IP-100,2013-04-18 14:15:00,
2013-04-18 10:20:00,56.0,52.0,30.26,East,90,6.0,11.0,86,0.00,,,0.00,Rainwise IP-100,2013-04-18 14:20:00,
2013-04-18 10:25:00,56.0,52.0,30.26,East,90,4.0,12.0,86,0.00,,,0.00,Rainwise IP-100,2013-04-18 14:25:00,
2013-04-18 10:30:00,57.0,53.0,30.27,ESE,112,6.0,12.0,85,0.00,,,0.00,Rainwise IP-100,2013-04-18 14:30:00,
2013-04-18 10:35:00,57.0,52.0,30.27,South,180,5.0,10.0,84,0.00,,,0.00,Rainwise IP-100,2013-04-18 14:35:00,
2013-04-18 10:40:00,57.0,52.0,30.26,SE,135,3.0,12.0,82,0.00,,,0.00,Rainwise IP-100,2013-04-18 14:40:00,
2013-04-18 10:45:00,58.0,52.0,30.26,ESE,112,6.0,7.0,79,0.00,,,0.00,Rainwise IP-100,2013-04-18 14:45:00,
2013-04-18 10:50:00,57.0,51.0,30.25,ESE,112,4.0,12.0,80,0.00,,,0.00,Rainwise IP-100,2013-04-18 14:50:00,
2013-04-18 10:55:00,58.0,50.5,30.25,East,90,1.0,12.0,76,0.00,,,0.00,Rainwise IP-100,2013-04-18 14:55:00,
2013-04-18 11:00:00,58.0,50.0,30.26,ESE,112,4.0,17.0,74,0.00,,,0.00,Rainwise IP-100,2013-04-18 15:00:00,
2013-04-18 11:05:00,58.0,50.0,30.26,South,180,7.0,15.0,74,0.00,,,0.00,Rainwise IP-100,2013-04-18 15:05:00,
2013-04-18 11:10:00,58.0,49.0,30.26,SE,135,12.0,13.0,71,0.00,,,0.00,Rainwise IP-100,2013-04-18 15:10:00,
2013-04-18 11:15:00,58.0,50.0,30.26,SE,135,9.0,15.0,73,0.00,,,0.00,Rainwise IP-100,2013-04-18 15:15:00,
2013-04-18 11:20:00,58.0,50.0,30.26,SSE,157,0.0,9.0,73,0.00,,,0.00,Rainwise IP-100,2013-04-18 15:20:00,
2013-04-18 11:25:00,58.0,50.0,30.26,NE,45,2.0,11.0,74,0.00,,,0.00,Rainwise IP-100,2013-04-18 15:25:00,
2013-04-18 11:30:00,58.0,50.0,30.26,East,90,6.0,17.0,74,0.00,,,0.00,Rainwise IP-100,2013-04-18 15:30:00,
2013-04-18 11:35:00,58.0,50.5,30.26,SSE,157,5.0,12.0,75,0.00,,,0.00,Rainwise IP-100,2013-04-18 15:35:00,
2013-04-18 11:36:00,58.0,50.5,30.26,South,180,5.0,12.0,75,0.00,,,0.00,Rainwise IP-100,2013-04-18 15:36:00,
2013-04-18 11:41:00,58.0,50.5,30.26,ESE,112,7.0,13.0,76,0.00,,,0.00,Rainwise IP-100,2013-04-18 15:41:00,
2013-04-18 11:46:00,58.0,51.0,30.26,SE,135,2.0,14.0,77,0.00,,,0.00,Rainwise IP-100,2013-04-18 15:46:00,
2013-04-18 11:51:00,58.0,52.0,30.25,ENE,67,8.0,12.0,79,0.00,,,0.00,Rainwise IP-100,2013-04-18 15:51:00,
2013-04-18 11:56:00,58.0,51.0,30.25,South,180,8.0,13.0,78,0.00,,,0.00,Rainwise IP-100,2013-04-18 15:56:00,
2013-04-18 12:01:00,58.0,51.0,30.24,SE,135,5.0,13.0,77,0.00,,,0.00,Rainwise IP-100,2013-04-18 16:01:00,
2013-04-18 12:06:00,58.0,51.0,30.24,SE,135,1.0,11.0,78,0.00,,,0.00,Rainwise IP-100,2013-04-18 16:06:00,
2013-04-18 12:11:00,59.0,52.0,30.24,SSE,157,1.0,7.0,78,0.00,,,0.00,Rainwise IP-100,2013-04-18 16:11:00,
2013-04-18 12:16:00,58.0,51.0,30.24,SE,135,10.0,12.0,77,0.00,,,0.00,Rainwise IP-100,2013-04-18 16:16:00,
2013-04-18 12:21:00,59.0,52.0,30.24,East,90,4.0,12.0,78,0.00,,,0.00,Rainwise IP-100,2013-04-18 16:21:00,
2013-04-18 12:26:00,59.0,52.0,30.24,South,180,4.0,10.0,78,0.00,,,0.00,Rainwise IP-100,2013-04-18 16:26:00,
2013-04-18 12:31:00,59.0,52.0,30.24,East,90,2.0,11.0,78,0.00,,,0.00,Rainwise IP-100,2013-04-18 16:31:00,
2013-04-18 12:36:00,58.0,51.0,30.24,SE,135,4.0,15.0,78,0.00,,,0.00,Rainwise IP-100,2013-04-18 16:36:00,
2013-04-18 12:41:00,59.0,53.0,30.23,East,90,7.0,12.0,80,0.00,,,0.00,Rainwise IP-100,2013-04-18 16:41:00,
2013-04-18 12:46:00,58.0,52.0,30.23,SE,135,7.0,13.0,79,0.00,,,0.00,Rainwise IP-100,2013-04-18 16:46:00,
2013-04-18 12:51:00,58.0,52.0,30.23,East,90,5.0,18.0,79,0.00,,,0.00,Rainwise IP-100,2013-04-18 16:51:00,
2013-04-18 12:56:00,59.0,53.0,30.23,East,90,3.0,10.0,80,0.00,,,0.00,Rainwise IP-100,2013-04-18 16:56:00,
2013-04-18 13:01:00,59.0,53.0,30.22,East,90,10.0,13.0,79,0.00,,,0.00,Rainwise IP-100,2013-04-18 17:01:00,
2013-04-18 13:06:00,59.0,52.0,30.22,SSE,157,8.0,14.0,78,0.00,,,0.00,Rainwise IP-100,2013-04-18 17:06:00,
2013-04-18 13:11:00,59.0,53.0,30.22,SE,135,2.0,11.0,79,0.00,,,0.00,Rainwise IP-100,2013-04-18 17:11:00,
2013-04-18 13:16:00,59.0,53.0,30.22,SSE,157,5.0,13.0,80,0.00,,,0.00,Rainwise IP-100,2013-04-18 17:16:00,
2013-04-18 13:21:00,58.0,52.0,30.22,ESE,112,4.0,11.0,79,0.00,,,0.00,Rainwise IP-100,2013-04-18 17:21:00,
2013-04-18 13:26:00,58.0,53.0,30.22,East,90,12.0,13.0,81,0.00,,,0.00,Rainwise IP-100,2013-04-18 17:26:00,
2013-04-18 13:31:00,58.0,53.0,30.22,East,90,9.0,12.0,81,0.00,,,0.00,Rainwise IP-100,2013-04-18 17:31:00,
2013-04-18 13:36:00,59.0,53.5,30.22,SE,135,6.0,10.0,81,0.00,,,0.00,Rainwise IP-100,2013-04-18 17:36:00,
2013-04-18 13:41:00,59.0,53.5,30.21,East,90,6.0,12.0,81,0.00,,,0.00,Rainwise IP-100,2013-04-18 17:41:00,
2013-04-18 13:46:00,59.0,53.5,30.21,ENE,67,10.0,10.0,82,0.00,,,0.00,Rainwise IP-100,2013-04-18 17:46:00,
2013-04-18 13:51:00,58.0,53.0,30.21,East,90,9.0,12.0,81,0.00,,,0.00,Rainwise IP-100,2013-04-18 17:51:00,
2013-04-18 13:56:00,58.0,53.0,30.21,East,90,7.0,10.0,81,0.00,,,0.00,Rainwise IP-100,2013-04-18 17:56:00,
2013-04-18 14:01:00,59.0,53.5,30.21,ESE,112,3.0,8.0,81,0.00,,,0.00,Rainwise IP-100,2013-04-18 18:01:00,
2013-04-18 14:06:00,59.0,53.5,30.21,East,90,5.0,9.0,81,0.00,,,0.00,Rainwise IP-100,2013-04-18 18:06:00,
2013-04-18 14:11:00,59.0,53.0,30.20,East,90,4.0,9.0,80,0.00,,,0.00,Rainwise IP-100,2013-04-18 18:11:00,
2013-04-18 14:16:00,59.0,53.0,30.20,East,90,5.0,9.0,80,0.00,,,0.00,Rainwise IP-100,2013-04-18 18:16:00,
2013-04-18 14:21:00,59.0,53.5,30.19,East,90,4.0,8.0,82,0.00,,,0.00,Rainwise IP-100,2013-04-18 18:21:00,
2013-04-18 14:26:00,59.0,53.5,30.19,East,90,2.0,8.0,81,0.00,,,0.00,Rainwise IP-100,2013-04-18 18:26:00,
2013-04-18 14:31:00,60.0,54.0,30.18,ENE,67,7.0,9.0,80,0.00,,,0.00,Rainwise IP-100,2013-04-18 18:31:00,
2013-04-18 14:36:00,60.0,54.0,30.18,East,90,9.0,10.0,80,0.00,,,0.00,Rainwise IP-100,2013-04-18 18:36:00,
2013-04-18 14:41:00,60.0,54.0,30.18,East,90,8.0,10.0,81,0.00,,,0.00,Rainwise IP-100,2013-04-18 18:41:00,
2013-04-18 14:46:00,60.0,54.0,30.18,ENE,67,1.0,11.0,80,0.00,,,0.00,Rainwise IP-100,2013-04-18 18:46:00,
2013-04-18 14:51:00,60.0,54.5,30.17,East,90,1.0,10.0,82,0.00,,,0.00,Rainwise IP-100,2013-04-18 18:51:00,
2013-04-18 14:56:00,59.0,54.0,30.17,West,270,0.0,12.0,84,0.00,,,0.00,Rainwise IP-100,2013-04-18 18:56:00,
2013-04-18 15:01:00,59.0,56.0,30.18,East,90,5.0,12.0,89,0.00,,,0.00,Rainwise IP-100,2013-04-18 19:01:00,
2013-04-18 15:06:00,59.0,56.5,30.18,East,90,4.0,11.0,91,0.00,,,0.00,Rainwise IP-100,2013-04-18 19:06:00,
2013-04-18 15:11:00,59.0,56.0,30.17,East,90,4.0,11.0,90,0.00,,,0.00,Rainwise IP-100,2013-04-18 19:11:00,
2013-04-18 15:16:00,58.0,56.0,30.17,NW,315,0.0,11.0,92,0.00,,,0.00,Rainwise IP-100,2013-04-18 19:16:00,
2013-04-18 15:21:00,58.0,56.5,30.18,East,90,3.0,12.0,94,0.00,,,0.00,Rainwise IP-100,2013-04-18 19:21:00,
2013-04-18 15:26:00,58.0,57.0,30.18,East,90,4.0,7.0,96,0.00,,,0.00,Rainwise IP-100,2013-04-18 19:26:00,
2013-04-18 15:31:00,58.0,56.5,30.17,East,90,3.0,7.0,94,0.00,,,0.00,Rainwise IP-100,2013-04-18 19:31:00,
2013-04-18 15:36:00,58.0,56.5,30.17,East,90,4.0,10.0,93,0.00,,,0.00,Rainwise IP-100,2013-04-18 19:36:00,
2013-04-18 15:41:00,59.0,57.0,30.16,SE,135,2.0,12.0,94,0.00,,,0.00,Rainwise IP-100,2013-04-18 19:41:00,
2013-04-18 15:46:00,59.0,56.5,30.16,SE,135,7.0,12.0,91,0.00,,,0.00,Rainwise IP-100,2013-04-18 19:46:00,
2013-04-18 15:51:00,59.0,56.5,30.16,SSE,157,8.0,10.0,91,0.00,,,0.00,Rainwise IP-100,2013-04-18 19:51:00,
2013-04-18 15:56:00,58.0,56.0,30.16,SE,135,6.0,10.0,91,0.00,,,0.00,Rainwise IP-100,2013-04-18 19:56:00,
2013-04-18 16:01:00,58.0,56.0,30.16,East,90,5.0,13.0,92,0.00,,,0.00,Rainwise IP-100,2013-04-18 20:01:00,
2013-04-18 16:06:00,58.0,56.0,30.16,SE,135,5.0,13.0,92,0.00,,,0.00,Rainwise IP-100,2013-04-18 20:06:00,
2013-04-18 16:11:00,58.0,56.5,30.15,SE,135,5.0,13.0,93,0.00,,,0.00,Rainwise IP-100,2013-04-18 20:11:00,
2013-04-18 16:16:00,58.0,56.5,30.15,SE,135,6.0,11.0,93,0.00,,,0.00,Rainwise IP-100,2013-04-18 20:16:00,
2013-04-18 16:21:00,58.0,56.5,30.16,SE,135,9.0,15.0,94,0.00,,,0.00,Rainwise IP-100,2013-04-18 20:21:00,
2013-04-18 16:26:00,58.0,56.5,30.16,East,90,3.0,11.0,94,0.00,,,0.00,Rainwise IP-100,2013-04-18 20:26:00,
2013-04-18 16:31:00,58.0,57.0,30.15,East,90,6.0,9.0,95,0.00,,,0.00,Rainwise IP-100,2013-04-18 20:31:00,
2013-04-18 16:36:00,57.0,56.5,30.15,SE,135,10.0,10.0,97,0.00,,,0.00,Rainwise IP-100,2013-04-18 20:36:00,
2013-04-18 16:41:00,56.0,56.0,30.15,SE,135,7.0,15.0,99,0.00,,,0.00,Rainwise IP-100,2013-04-18 20:41:00,
2013-04-18 16:46:00,56.0,56.0,30.15,East,90,3.0,12.0,100,0.00,,,0.00,Rainwise IP-100,2013-04-18 20:46:00,
2013-04-18 16:51:00,56.0,56.0,30.16,ESE,112,3.0,9.0,100,0.00,,,0.00,Rainwise IP-100,2013-04-18 20:51:00,
2013-04-18 16:56:00,55.0,55.0,30.16,East,90,6.0,11.0,100,0.00,,,0.00,Rainwise IP-100,2013-04-18 20:56:00,
2013-04-18 17:01:00,55.0,55.0,30.17,SE,135,3.0,11.0,100,0.00,,,0.00,Rainwise IP-100,2013-04-18 21:01:00,
2013-04-18 17:06:00,55.0,55.0,30.17,SE,135,5.0,10.0,100,0.00,,,0.00,Rainwise IP-100,2013-04-18 21:06:00,
2013-04-18 17:11:00,55.0,55.0,30.16,ESE,112,6.0,9.0,100,0.00,,,0.00,Rainwise IP-100,2013-04-18 21:11:00,
2013-04-18 17:16:00,56.0,56.0,30.16,ESE,112,6.0,9.0,100,0.00,,,0.00,Rainwise IP-100,2013-04-18 21:16:00,
2013-04-18 17:21:00,56.0,56.0,30.15,ENE,67,2.0,8.0,100,0.00,,,0.00,Rainwise IP-100,2013-04-18 21:21:00,
2013-04-18 17:26:00,56.0,56.0,30.15,East,90,3.0,11.0,100,0.00,,,0.00,Rainwise IP-100,2013-04-18 21:26:00,
2013-04-18 17:31:00,56.0,56.0,30.15,ESE,112,7.0,10.0,100,0.00,,,0.00,Rainwise IP-100,2013-04-18 21:31:00,
2013-04-18 17:36:00,56.0,56.0,30.15,SSE,157,7.0,13.0,100,0.00,,,0.00,Rainwise IP-100,2013-04-18 21:36:00,
2013-04-18 17:41:00,56.0,56.0,30.15,East,90,9.0,12.0,100,0.00,,,0.00,Rainwise IP-100,2013-04-18 21:41:00,
2013-04-18 17:46:00,56.0,56.0,30.15,ESE,112,7.0,10.0,100,0.00,,,0.00,Rainwise IP-100,2013-04-18 21:46:00,
2013-04-18 17:51:00,56.0,56.0,30.15,NE,45,1.0,12.0,100,0.00,,,0.00,Rainwise IP-100,2013-04-18 21:51:00,
2013-04-18 17:56:00,56.0,56.0,30.15,SE,135,4.0,6.0,100,0.00,,,0.00,Rainwise IP-100,2013-04-18 21:56:00,
2013-04-18 18:01:00,56.0,56.0,30.14,East,90,6.0,11.0,100,0.00,,,0.00,Rainwise IP-100,2013-04-18 22:01:00,
2013-04-18 18:06:00,56.0,56.0,30.14,SE,135,4.0,12.0,100,0.00,,,0.00,Rainwise IP-100,2013-04-18 22:06:00,
2013-04-18 18:11:00,56.0,56.0,30.14,NE,45,0.0,5.0,100,0.00,,,0.00,Rainwise IP-100,2013-04-18 22:11:00,
2013-04-18 18:16:00,56.0,56.0,30.14,SSE,157,3.0,9.0,100,0.00,,,0.00,Rainwise IP-100,2013-04-18 22:16:00,
2013-04-18 18:21:00,56.0,56.0,30.13,SE,135,2.0,6.0,100,0.00,,,0.00,Rainwise IP-100,2013-04-18 22:21:00,
2013-04-18 18:26:00,56.0,56.0,30.13,East,90,5.0,9.0,100,0.00,,,0.00,Rainwise IP-100,2013-04-18 22:26:00,
2013-04-18 18:31:00,56.0,56.0,30.13,East,90,5.0,9.0,100,0.00,,,0.00,Rainwise IP-100,2013-04-18 22:31:00,
2013-04-18 18:36:00,56.0,56.0,30.13,SE,135,3.0,7.0,100,0.00,,,0.00,Rainwise IP-100,2013-04-18 22:36:00,
2013-04-18 18:41:00,56.0,56.0,30.13,ESE,112,2.0,7.0,100,0.00,,,0.00,Rainwise IP-100,2013-04-18 22:41:00,
2013-04-18 18:46:00,56.0,56.0,30.13,East,90,5.0,6.0,100,0.00,,,0.00,Rainwise IP-100,2013-04-18 22:46:00,
2013-04-18 18:51:00,56.0,56.0,30.13,East,90,5.0,6.0,100,0.00,,,0.00,Rainwise IP-100,2013-04-18 22:51:00,
2013-04-18 18:56:00,56.0,56.0,30.13,SE,135,4.0,7.0,100,0.00,,,0.00,Rainwise IP-100,2013-04-18 22:56:00,
2013-04-18 19:01:00,56.0,56.0,30.13,East,90,4.0,6.0,100,0.00,,,0.00,Rainwise IP-100,2013-04-18 23:01:00,
2013-04-18 19:06:00,55.0,55.0,30.13,East,90,4.0,7.0,100,0.00,,,0.00,Rainwise IP-100,2013-04-18 23:06:00,
2013-04-18 19:11:00,55.0,55.0,30.12,ENE,67,3.0,7.0,100,0.00,,,0.00,Rainwise IP-100,2013-04-18 23:11:00,
2013-04-18 19:16:00,55.0,55.0,30.12,ENE,67,3.0,6.0,100,0.00,,,0.00,Rainwise IP-100,2013-04-18 23:16:00,
2013-04-18 19:21:00,55.0,55.0,30.12,NE,45,0.0,6.0,100,0.00,,,0.00,Rainwise IP-100,2013-04-18 23:21:00,
2013-04-18 19:26:00,55.0,55.0,30.12,ENE,67,5.0,5.0,100,0.00,,,0.00,Rainwise IP-100,2013-04-18 23:26:00,
2013-04-18 19:31:00,55.0,55.0,30.12,NE,45,3.0,6.0,100,0.00,,,0.00,Rainwise IP-100,2013-04-18 23:31:00,
2013-04-18 19:36:00,55.0,55.0,30.12,East,90,3.0,5.0,100,0.00,,,0.00,Rainwise IP-100,2013-04-18 23:36:00,
2013-04-18 19:41:00,55.0,55.0,30.12,ENE,67,3.0,5.0,100,0.00,,,0.00,Rainwise IP-100,2013-04-18 23:41:00,
2013-04-18 19:46:00,55.0,55.0,30.12,ENE,67,6.0,6.0,100,0.00,,,0.00,Rainwise IP-100,2013-04-18 23:46:00,
2013-04-18 19:51:00,55.0,55.0,30.12,NE,45,1.0,7.0,100,0.00,,,0.00,Rainwise IP-100,2013-04-18 23:51:00,
2013-04-18 19:56:00,55.0,55.0,30.12,ENE,67,3.0,6.0,100,0.00,,,0.00,Rainwise IP-100,2013-04-18 23:56:00,
2013-04-18 20:01:00,55.0,55.0,30.12,East,90,0.0,8.0,100,0.00,,,0.00,Rainwise IP-100,2013-04-19 00:01:00,
2013-04-18 20:06:00,55.0,55.0,30.12,ENE,67,0.0,6.0,100,0.00,,,0.00,Rainwise IP-100,2013-04-19 00:06:00,
2013-04-18 20:11:00,55.0,55.0,30.12,NE,45,6.0,8.0,100,0.00,,,0.00,Rainwise IP-100,2013-04-19 00:11:00,
2013-04-18 20:16:00,55.0,55.0,30.12,NNE,22,2.0,7.0,100,0.00,,,0.00,Rainwise IP-100,2013-04-19 00:16:00,
2013-04-18 20:21:00,55.0,55.0,30.12,East,90,3.0,6.0,100,0.00,,,0.00,Rainwise IP-100,2013-04-19 00:21:00,
2013-04-18 20:26:00,55.0,55.0,30.12,ENE,67,5.0,5.0,100,0.00,,,0.00,Rainwise IP-100,2013-04-19 00:26:00,
2013-04-18 20:31:00,55.0,55.0,30.11,ESE,112,1.0,6.0,100,0.00,,,0.00,Rainwise IP-100,2013-04-19 00:31:00,
2013-04-18 20:36:00,55.0,55.0,30.11,East,90,1.0,6.0,100,0.00,,,0.00,Rainwise IP-100,2013-04-19 00:36:00,
2013-04-18 20:41:00,55.0,55.0,30.11,NE,45,2.0,7.0,100,0.00,,,0.00,Rainwise IP-100,2013-04-19 00:41:00,
2013-04-18 20:46:00,55.0,55.0,30.11,NE,45,4.0,6.0,100,0.00,,,0.00,Rainwise IP-100,2013-04-19 00:46:00,
2013-04-18 20:51:00,55.0,55.0,30.11,ESE,112,2.0,6.0,100,0.00,,,0.00,Rainwise IP-100,2013-04-19 00:51:00,
2013-04-18 20:56:00,55.0,55.0,30.11,East,90,2.0,6.0,100,0.00,,,0.00,Rainwise IP-100,2013-04-19 00:56:00,
2013-04-18 21:01:00,55.0,55.0,30.11,East,90,4.0,6.0,100,0.00,,,0.00,Rainwise IP-100,2013-04-19 01:01:00,
2013-04-18 21:06:00,55.0,55.0,30.11,East,90,2.0,7.0,100,0.00,,,0.00,Rainwise IP-100,2013-04-19 01:06:00,
2013-04-18 21:11:00,55.0,55.0,30.10,East,90,5.0,5.0,100,0.00,,,0.00,Rainwise IP-100,2013-04-19 01:11:00,
2013-04-18 21:16:00,55.0,55.0,30.10,NE,45,2.0,5.0,100,0.00,,,0.00,Rainwise IP-100,2013-04-19 01:16:00,
2013-04-18 21:21:00,55.0,55.0,30.10,East,90,4.0,5.0,100,0.00,,,0.00,Rainwise IP-100,2013-04-19 01:21:00,
2013-04-18 21:26:00,55.0,55.0,30.10,East,90,4.0,5.0,100,0.00,,,0.00,Rainwise IP-100,2013-04-19 01:26:00,
2013-04-18 21:31:00,55.0,55.0,30.10,NE,45,0.0,6.0,100,0.00,,,0.00,Rainwise IP-100,2013-04-19 01:31:00,
2013-04-18 21:36:00,55.0,55.0,30.10,NE,45,2.0,4.0,100,0.00,,,0.00,Rainwise IP-100,2013-04-19 01:36:00,
2013-04-18 21:41:00,55.0,55.0,30.10,East,90,7.0,7.0,100,0.00,,,0.00,Rainwise IP-100,2013-04-19 01:41:00,
2013-04-18 21:46:00,55.0,55.0,30.10,East,90,1.0,8.0,100,0.00,,,0.00,Rainwise IP-100,2013-04-19 01:46:00,
2013-04-18 21:51:00,55.0,55.0,30.09,SE,135,4.0,4.0,100,0.00,,,0.00,Rainwise IP-100,2013-04-19 01:51:00,
2013-04-18 21:56:00,55.0,55.0,30.09,ESE,112,1.0,6.0,100,0.00,,,0.00,Rainwise IP-100,2013-04-19 01:56:00,
2013-04-18 22:01:00,55.0,55.0,30.08,ESE,112,0.0,3.0,100,0.00,,,0.00,Rainwise IP-100,2013-04-19 02:01:00,
2013-04-18 22:06:00,56.0,56.0,30.08,East,90,3.0,5.0,100,0.00,,,0.00,Rainwise IP-100,2013-04-19 02:06:00,
2013-04-18 22:11:00,56.0,56.0,30.08,East,90,6.0,6.0,100,0.00,,,0.00,Rainwise IP-100,2013-04-19 02:11:00,
2013-04-18 22:16:00,56.0,56.0,30.08,East,90,3.0,7.0,100,0.00,,,0.00,Rainwise IP-100,2013-04-19 02:16:00,
2013-04-18 22:21:00,56.0,56.0,30.07,ENE,67,0.0,7.0,100,0.00,,,0.00,Rainwise IP-100,2013-04-19 02:21:00,
2013-04-18 22:26:00,56.0,56.0,30.07,East,90,0.0,4.0,100,0.00,,,0.00,Rainwise IP-100,2013-04-19 02:26:00,
2013-04-18 22:31:00,56.0,56.0,30.07,East,90,0.0,6.0,100,0.00,,,0.00,Rainwise IP-100,2013-04-19 02:31:00,
2013-04-18 22:36:00,56.0,56.0,30.07,ESE,112,0.0,2.0,100,0.00,,,0.00,Rainwise IP-100,2013-04-19 02:36:00,
2013-04-18 22:41:00,56.0,56.0,30.07,NE,45,0.0,1.0,100,0.00,,,0.00,Rainwise IP-100,2013-04-19 02:41:00,
2013-04-18 22:46:00,56.0,56.0,30.07,NE,45,1.0,2.0,100,0.00,,,0.00,Rainwise IP-100,2013-04-19 02:46:00,
2013-04-18 22:51:00,56.0,56.0,30.06,NE,45,0.0,1.0,100,0.00,,,0.00,Rainwise IP-100,2013-04-19 02:51:00,
2013-04-18 22:56:00,56.0,56.0,30.06,NE,45,0.0,1.0,100,0.00,,,0.00,Rainwise IP-100,2013-04-19 02:56:00,
2013-04-18 23:01:00,56.0,56.0,30.05,NE,45,2.0,3.0,100,0.00,,,0.00,Rainwise IP-100,2013-04-19 03:01:00,
2013-04-18 23:06:00,56.0,56.0,30.05,NE,45,0.0,4.0,100,0.00,,,0.00,Rainwise IP-100,2013-04-19 03:06:00,
2013-04-18 23:11:00,56.0,56.0,30.05,NE,45,0.0,2.0,100,0.00,,,0.00,Rainwise IP-100,2013-04-19 03:11:00,
2013-04-18 23:16:00,56.0,56.0,30.05,NE,45,0.0,0.0,100,0.00,,,0.00,Rainwise IP-100,2013-04-19 03:16:00,
2013-04-18 23:21:00,56.0,56.0,30.04,NE,45,0.0,3.0,100,0.00,,,0.00,Rainwise IP-100,2013-04-19 03:21:00,
2013-04-18 23:26:00,56.0,56.0,30.04,East,90,2.0,2.0,100,0.00,,,0.00,Rainwise IP-100,2013-04-19 03:26:00,
2013-04-18 23:31:00,57.0,57.0,30.03,SE,135,1.0,3.0,100,0.00,,,0.00,Rainwise IP-100,2013-04-19 03:31:00,
2013-04-18 23:36:00,57.0,57.0,30.03,ESE,112,0.0,6.0,100,0.00,,,0.00,Rainwise IP-100,2013-04-19 03:36:00,
2013-04-18 23:41:00,57.0,57.0,30.02,SE,135,0.0,6.0,100,0.00,,,0.00,Rainwise IP-100,2013-04-19 03:41:00,
2013-04-18 23:47:00,57.0,57.0,30.02,SE,135,6.0,6.0,100,0.00,,,0.00,Rainwise IP-100,2013-04-19 03:47:00,
2013-04-18 23:52:00,58.0,58.0,30.02,South,180,3.0,6.0,100,0.00,,,0.00,Rainwise IP-100,2013-04-19 03:52:00,
2013-04-18 23:57:00,58.0,58.0,30.02,South,180,0.0,4.0,100,0.00,,,0.00,Rainwise IP-100,2013-04-19 03:57:00,